| Date | Temp High/Low | Dew Pt High/Low | Humidity | Wind | Max Wind | Wind Gust | Pressure | Precip. | Condition |
|---|---|---|---|---|---|---|---|---|---|
| 8/31/2026 | 88 °F / 79 °F | 79 °F / 74 °F | 81 % | 16 mph | - | 30.01 in | 0 in | ||
| 8/30/2026 | 88 °F / 81 °F | 78 °F / 74 °F | 78 % | 15 mph | - | 30.01 in | 0 in | ||
| 8/29/2026 | 94 °F / 81 °F | 79 °F / 67 °F | 71 % | 12 mph | - | 30.01 in | 0 in | ||
| 8/28/2026 | 92 °F / 79 °F | 78 °F / 72 °F | 76 % | 15 mph | - | 29.99 in | 0.24 in | ||
| 8/27/2026 | 86 °F / 75 °F | 79 °F / 71 °F | 83 % | 35 mph | - | 29.96 in | 1.85 in | ||
| 8/26/2026 | 92 °F / 78 °F | 79 °F / 72 °F | 73 % | 14 mph | - | 29.98 in | 0 in | ||
| 8/25/2026 | 90 °F / 78 °F | 79 °F / 69 °F | 78 % | 31 mph | - | 30 in | 0 in | ||
| 8/24/2026 | 91 °F / 77 °F | 80 °F / 74 °F | 84 % | 30 mph | - | 30 in | 0.05 in | ||
| 8/23/2026 | 96 °F / 83 °F | 81 °F / 73 °F | 73 % | 31 mph | - | 29.97 in | 0 in | ||
| 8/22/2026 | 93 °F / 77 °F | 81 °F / 73 °F | 76 % | 14 mph | - | 29.99 in | 0 in | ||
| 8/21/2026 | 94 °F / 73 °F | 80 °F / 69 °F | 75 % | 38 mph | - | 30.01 in | 0.03 in | ||
| 8/20/2026 | 93 °F / 83 °F | 79 °F / 69 °F | 69 % | 16 mph | - | 30.01 in | 0 in | ||
| 8/19/2026 | 93 °F / 83 °F | 80 °F / 75 °F | 72 % | 15 mph | - | 30 in | 0 in | ||
| 8/18/2026 | 94 °F / 84 °F | 79 °F / 75 °F | 74 % | 16 mph | - | 30.04 in | 0 in | ||
| 8/17/2026 | 93 °F / 84 °F | 79 °F / 68 °F | 69 % | 13 mph | - | 30.07 in | 0 in | ||
| 8/16/2026 | 96 °F / 84 °F | 79 °F / 73 °F | 70 % | 14 mph | - | 30.11 in | 0 in | ||
| 8/15/2026 | 94 °F / 82 °F | 80 °F / 68 °F | 70 % | 12 mph | - | 30.14 in | 0 in | ||
| 8/14/2026 | 94 °F / 81 °F | 77 °F / 72 °F | 70 % | 10 mph | - | 30.11 in | 0 in | ||
| 8/13/2026 | 94 °F / 82 °F | 79 °F / 75 °F | 72 % | 16 mph | - | 30.03 in | 0 in | ||
| 8/12/2026 | 83 °F / 81 °F | 77 °F / 77 °F | 85 % | 6 mph | - | 30.03 in | 0 in | ||
| 8/11/2026 | 92 °F / 80 °F | 79 °F / 74 °F | 75 % | 12 mph | - | 30.09 in | 0 in | ||
| 8/10/2026 | 92 °F / 79 °F | 78 °F / 72 °F | 77 % | 16 mph | - | 30.11 in | 0 in | ||
| 8/9/2026 | 90 °F / 80 °F | 78 °F / 71 °F | 75 % | 18 mph | - | 30.06 in | 0 in | ||
| 8/8/2026 | 92 °F / 80 °F | 77 °F / 72 °F | 71 % | 13 mph | - | 30.07 in | 0 in | ||
| 8/7/2026 | 91 °F / 81 °F | 78 °F / 73 °F | 73 % | 15 mph | - | 30.11 in | 0 in | ||
| 8/6/2026 | 90 °F / 80 °F | 77 °F / 69 °F | 71 % | 14 mph | - | 30.09 in | 0 in | ||
| 8/5/2026 | 91 °F / 80 °F | 78 °F / 72 °F | 71 % | 23 mph | - | 30.03 in | 0 in | ||
| 8/4/2026 | 93 °F / 79 °F | 77 °F / 68 °F | 68 % | 13 mph | - | 29.96 in | 0 in | ||
| 8/3/2026 | 91 °F / 76 °F | 76 °F / 68 °F | 65 % | 9 mph | - | 29.89 in | 0 in | ||
| 8/2/2026 | 85 °F / 73 °F | 80 °F / 72 °F | 86 % | 41 mph | - | 29.82 in | 2.12 in | ||
| 8/1/2026 | 94 °F / 82 °F | 79 °F / 75 °F | 72 % | 20 mph | - | 29.87 in | 0 in |